Home > Weather > Tel Aviv > Past weeks

Flag for Israel Weather for the Past 2 Weeks in Tel Aviv, Israel

Now
79 °F

Passing clouds.


Feels Like: 79 °F
Forecast: 67 / 71 °F
Wind: 13 mph from West

Location: Ben Gurion International Airport

Current Time: May 5, 2016 at 1:49:57 PM

Latest Report: May 5, 2016 at 1:20 PM


Visibility: N/A

Pressure: 29.89 "Hg

Humidity: 32%

Dew Point: 46 °F

Location of Tel AvivLocation

Historic Weather in Tel Aviv — Graph

°F

Tel Aviv Temperature Yesterday

Maximum temperature yesterday: 75 °F (at 12:50 AM)
Minimum temperature yesterday: 66 °F (at 11:20 PM)
Average temperature yesterday: 71 °F

High & Low Weather Summary for the Past Weeks

 TemperatureHumidityPressure
High104 °F (Apr 26, 2:50 PM)88% (Apr 27, 4:50 AM)30.04 "Hg (Apr 27, 4:50 AM)
Low59 °F (Apr 24, 6:20 AM)7% (Apr 20, 12:20 PM)29.56 "Hg (Apr 25, 12:50 AM)
Average74 °F52%29.87 "Hg
* Reported Apr 20 12:20 PM — May 5 12:50 PM, Tel Aviv, Weather by CustomWeather, © 2016

Note: Actual official high and low records may vary slightly from our data, if they occured in-between our weather recording intervals... More about our weather records

Advertising

Tel Aviv Weather History for the Previous 24 Hours

Scroll right to see more
 ConditionsComfort  
Time TempWeatherWind HumidityBarometerVisibility
12:50 PM
Thu, May 5
77 °FPassing clouds.13 mph34%29.89 "HgN/A
12:20 PM77 °FPassing clouds.14 mph36%29.92 "HgN/A
11:50 AM77 °FPassing clouds.10 mph36%29.92 "HgN/A
11:20 AM77 °FPassing clouds.5 mph36%29.92 "HgN/A
10:50 AM77 °FPassing clouds.3 mph34%29.92 "HgN/A
10:20 AM77 °FPassing clouds.2 mph36%29.92 "HgN/A
9:50 AM73 °FPassing clouds.6 mph44%29.92 "HgN/A
9:20 AM73 °FPassing clouds.6 mph44%29.95 "HgN/A
8:50 AM72 °FPassing clouds.7 mph50%29.92 "HgN/A
8:20 AM70 °FPassing clouds.7 mph53%29.92 "HgN/A
7:50 AM68 °FPassing clouds.7 mph56%29.95 "HgN/A
7:20 AM66 °FPassing clouds.8 mph56%29.92 "HgN/A
6:50 AM64 °FPassing clouds.7 mph64%29.92 "HgN/A
6:20 AM63 °FPassing clouds.6 mph68%29.92 "HgN/A
5:50 AM63 °FPassing clouds.7 mph68%29.92 "HgN/A
5:20 AM63 °FPassing clouds.5 mph73%29.92 "HgN/A
4:50 AM64 °FPassing clouds.2 mph68%29.92 "HgN/A
4:20 AM64 °FPassing clouds.6 mph68%29.92 "HgN/A
3:50 AM64 °FPassing clouds.5 mph73%29.92 "HgN/A
3:20 AM64 °FPassing clouds.6 mph73%29.92 "HgN/A
2:50 AM64 °FClear.5 mph73%29.92 "Hg10 mi
2:20 AM64 °FClear.5 mph73%29.92 "Hg10 mi
1:50 AM64 °FClear.6 mph73%29.92 "Hg10 mi
1:20 AM66 °FClear.3 mph68%29.92 "Hg10 mi
12:50 AM66 °FClear.3 mph68%29.92 "Hg10 mi
12:20 AM66 °FClear.2 mph68%29.95 "Hg10 mi
11:50 PM
Wed, May 4
66 °FClear.2 mph68%29.95 "Hg10 mi
11:20 PM66 °FClear.2 mph68%29.95 "Hg10 mi
10:50 PM68 °FClear.2 mph64%29.95 "Hg10 mi
10:20 PM68 °FClear.5 mph64%29.95 "Hg10 mi
9:50 PM68 °FClear.2 mph64%29.98 "Hg10 mi
9:20 PM68 °FClear.3 mph69%29.98 "Hg10 mi
8:50 PM68 °FClear.3 mph64%29.98 "Hg10 mi
8:20 PM68 °FSunny.5 mph64%29.95 "Hg10 mi
7:50 PM70 °FSunny.7 mph60%29.95 "Hg10 mi
7:20 PM70 °FPassing clouds.8 mph60%29.98 "HgN/A
6:50 PM70 °FPassing clouds.9 mph60%29.98 "HgN/A
6:20 PM70 °FPassing clouds.9 mph60%29.95 "HgN/A
5:50 PM72 °FPassing clouds.9 mph57%29.98 "HgN/A
5:20 PM72 °FPassing clouds.10 mph53%29.98 "HgN/A
4:50 PM72 °FPassing clouds.12 mph57%29.95 "HgN/A
4:20 PM72 °FScattered clouds.12 mph53%29.95 "HgN/A
3:50 PM73 °FScattered clouds.13 mph50%29.95 "HgN/A
3:20 PM73 °FScattered clouds.13 mph47%29.95 "HgN/A
2:50 PM72 °FScattered clouds.14 mph50%29.95 "HgN/A
2:20 PM73 °FPassing clouds.16 mph50%29.95 "HgN/A
1:50 PM75 °FScattered clouds.15 mph50%29.95 "HgN/A
1:20 PM73 °FPassing clouds.14 mph53%29.95 "HgN/A
Weather by CustomWeather, © 2016

See weather overviewHow to use our weather pages